#timestamp,LO_Frequency,Hit,StdDev 
1601172015.5,286046998.0,P
1601172035.4,286046996.5,N
1601172055.2,286046998.8,N
1601172075.0,286046998.2,N
1601172075.9,286046998.2,N
1601172095.8,286046999.5,N
1601172115.6,286046997.8,N
1601172135.5,286046997.1,N
1601172155.3,286046997.5,N
1601172175.1,286046996.6,N
1601172195.9,286046998.4,N
1601172215.7,286046996.5,N
1601172235.5,286046996.5,N
1601172255.4,286047000.9,N
1601172275.2,286047000.6,N
1601172295.1,286047001.0,N
1601172326.0,286047001.1,E
1601172335.0,286046996.6,N
1601172335.9,286046996.6,P
1601172355.8,286046996.5,P
1601172375.6,286046997.1,Y
1601172395.4,286047001.0,P
1601172415.3,286047000.0,N
1601172435.1,286047001.2,N
1601172455.8,286047000.9,N
1601172475.7,286046998.1,N
1601172495.5,286046999.9,N
1601172515.4,286047000.7,N
1601172535.2,286047000.7,N
1601172555.0,286046996.6,N
1601172555.9,286046996.6,N
1601172575.8,286046997.1,N
1601172595.6,286046997.3,N
1601172615.4,286046997.2,N
1601172635.3,286046999.2,N
1601172655.1,286046997.7,N
1601172675.8,286046999.5,N
1601172695.7,286047000.0,N
1601172715.5,286047000.5,N
1601172735.4,286047002.8,N
1601172755.2,286047001.0,N
1601172775.0,286046998.9,N
1601172775.9,286046998.9,N
1601172795.8,286046997.3,N
1601172815.6,286046997.2,N
1601172835.4,286046997.4,N
1601172855.3,286046997.6,N
1601172875.1,286046995.6,N
1601172895.9,286046997.6,N
1601172915.7,286046995.5,N
1601172935.6,286046997.4,N
1601172955.4,286046995.7,N
1601172975.2,286046999.6,N
1601172995.1,286046997.7,N
1601172996.0,286046997.7,N
1601173015.8,286046996.5,N
1601173035.7,286046996.6,N
1601173055.5,286046997.8,N
1601173075.3,286046994.9,Y
1601173095.2,286046998.7,P
1601173115.0,286046998.9,P
1601173115.9,286046998.9,P
1601173135.7,286047000.8,N
1601173155.6,286046998.5,N
1601173175.4,286046998.7,N
1601173195.3,286046998.8,N
1601173215.1,286047000.4,N
1601173216.0,286047000.4,N
1601173235.8,286046998.4,N
1601173255.7,286046999.3,N
1601173275.5,286047001.0,N
1601173295.3,286047000.6,N
1601173315.2,286047001.1,N
1601173335.0,286046998.2,N
1601173366.0,286046998.8,E
1601173375.9,286046998.3,N
1601173395.7,286047001.0,P
1601173415.5,286047001.1,N
1601173435.4,286047002.2,N
1601173455.2,286046999.8,N
1601173475.1,286047002.1,N
1601173476.0,286047002.1,N
1601173495.8,286047004.2,Y
1601173515.6,286047000.6,P
1601173535.5,286047000.4,N
1601173555.3,286047000.6,N
1601173575.2,286047000.7,Y
1601173595.9,286046998.5,P
1601173615.7,286046998.3,N
1601173635.6,286046998.6,N
1601173655.4,286046998.7,N
1601173675.3,286046998.1,N
1601173695.1,286046999.4,N
1601173696.0,286046999.4,N
1601173715.8,286047000.8,N
1601173735.7,286047003.8,Y
1601173755.5,286047003.0,P
1601173775.4,286047004.4,N
1601173795.2,286047002.7,N
1601173815.0,286047002.6,N
1601173815.9,286047002.6,N
1601173835.8,286047002.7,N
1601173855.6,286047000.3,N
1601173875.4,286047000.1,N
1601173895.3,286047003.9,N
1601173915.1,286047002.8,N
1601173935.8,286047002.3,N
1601173955.7,286046999.7,N
1601173975.5,286047000.9,N
1601173995.4,286047000.5,N
1601174015.2,286047000.5,N
1601174035.0,286047000.2,N
1601174035.9,286047000.2,N
1601174055.8,286047000.3,N
1601174075.6,286047000.6,N
1601174095.4,286047000.3,N
1601174115.3,286047000.9,N
1601174135.1,286046998.8,N
1601174155.9,286046999.4,N
1601174175.7,286047000.9,N
1601174195.6,286046999.7,N
1601174215.4,286047001.7,N
1601174235.2,286047002.3,N
1601174255.1,286046998.1,N
1601174256.0,286046998.1,N
1601174275.8,286047001.0,N
1601174295.6,286047001.1,N
1601174315.5,286047000.4,N
1601174335.3,286047002.7,N
1601174355.2,286047001.0,N
1601174375.0,286046999.9,N
1601174375.9,286046999.9,N
1601174395.7,286047000.9,N
1601174415.6,286047000.3,N
1601174435.4,286046998.1,N
1601174455.3,286047000.2,N
1601174475.1,286047000.0,N
1601174476.0,286047000.0,N
1601174495.8,286047002.3,N
1601174515.7,286047000.6,N
1601174535.5,286047000.6,N
1601174555.4,286047000.6,N
1601174575.2,286047000.0,N
1601174595.0,286047000.3,N
1601174595.9,286047000.3,N
1601174615.8,286047001.0,N
1601174635.6,286046998.2,N
1601174655.4,286047000.4,N
1601174675.3,286047001.0,N
1601174695.1,286047001.0,N
1601174715.9,286047000.9,N
1601174735.7,286047002.7,N
1601174755.5,286047000.7,N
1601174775.4,286047000.3,N
1601174795.2,286046998.8,N
1601174815.0,286047000.5,N
1601174815.9,286047000.5,N
1601174835.8,286047000.9,N
1601174855.6,286047000.9,N
1601174875.5,286046999.8,N
1601174895.3,286047000.9,N
1601174915.1,286047000.5,N
1601174935.9,286047000.7,N
1601174955.7,286047000.7,N
1601174975.5,286046998.9,N
1601174995.4,286047000.6,N
1601175015.2,286047000.2,N
1601175035.1,286047002.0,N
1601175036.0,286047002.0,N
1601175055.8,286046999.8,N
1601175075.6,286047002.2,N
1601175095.5,286047002.4,N
1601175115.3,286047002.3,N
1601175135.1,286047002.4,N
1601175155.9,286046998.2,N
1601175175.7,286047001.1,N
1601175195.6,286046999.9,N
1601175215.4,286047002.1,N
1601175235.2,286047002.4,N
1601175255.1,286047002.4,N
1601175256.0,286047002.4,N
1601175275.8,286047000.5,N
1601175295.6,286047004.0,Y
1601175315.5,286047004.4,P
1601175335.3,286047002.3,N
1601175355.2,286047000.4,N
1601175375.9,286047000.7,N
1601175395.7,286047000.6,N
1601175415.6,286047002.6,N
1601175435.4,286047000.9,N
1601175455.2,286046998.6,N
1601175475.1,286046998.3,N
1601175476.0,286046998.3,N
1601175495.8,286046999.1,N
1601175515.7,286046998.8,N
1601175535.5,286047001.1,N
1601175555.3,286046998.4,N
1601175575.2,286046998.8,N
1601175595.0,286046998.6,N
1601175595.9,286046998.6,N
